Location: Parchey Bridge, Chedzoy
(51.1354°N, 2.9289°W)
Time: 06:18:25
(UTC+00:00)

ISS - Visible Passes

Search period start: 19 February 2019 00:00
Search period end: 01 March 2019 00:00
Orbit: 403 x 411 km, 51.6° (Epoch: 19 February)

Date Brightness Start Highest point End Pass type
(mag) Time Alt. Az. Time Alt. Az. Time Alt. Az.
24 Feb -1.2 06:16:58 10° S 06:19:21 19° SE 06:21:45 10° E visible
25 Feb -0.9 05:26:40 10° SSE 05:28:04 12° SE 05:29:27 10° ESE visible
26 Feb -2.3 06:09:34 10° SW 06:12:33 33° SSE 06:15:33 10° E visible
27 Feb -1.7 05:19:12 14° S 05:21:09 22° SE 05:23:47 10° E visible
28 Feb -1.2 04:29:55 15° SE 04:29:55 15° SE 04:31:45 10° ESE visible
28 Feb -3.3 06:02:37 10° WSW 06:05:49 56° SSE 06:09:02 10° E visible
